Tracking 22881 objects as of 19-Apr-2021
HD Live streaming from Space Station
objects crossing your sky now

STARLINK-1193

Track STARLINK-1193 now!
10-day predictions
STARLINK-1193 is classified as:


NORAD ID: 45100
Int'l Code: 2020-006BJ
Perigee: 553.2 km
Apogee: 555.5 km
Inclination: 53.1 °
Period: 95.6 minutes
Semi major axis: 6925 km
RCS: Unknown
Launch date: January 29, 2020
Source: United States (US)
Launch site: AIR FORCE EASTERN TEST RANGE (AFETR)
aabbcc
Your satellite tracking list
Your tracking list is empty




NASA's NSSDC Master Catalog

Two Line Element Set (TLE):
1 45100U 20006BJ  21108.91711703  .00001355  00000-0  10986-3 0  9990
2 45100  53.0567 343.2689 0001702  82.9052 277.2130 15.06406074 67861
Source of the keplerian elements: AFSPC